Regional Weather Roundup
Issued by NWS State College, PA

Home | Current Version | Previous Version | Text Only | Print | Product List | Glossary On
Versions: 1 2 3 4 5 6 7 8 9 10 11 12 13 14 15 16 17 18 19 20 21 22 23 24 25 26 27 28 29 30 31 32 33 34 35 36 37 38 39 40 41 42 43 44 45 46 47 48 49 50
214
ASUS41 KCTP 291410
RWRCTP

REGIONAL WEATHER ROUNDUP
NATIONAL WEATHER SERVICE STATE COLLEGE PA
1000 AM EDT FRI JUL 29 2016

Note: "fair" indicates few or no clouds below 12,000 feet with no
significant weather and/or obstructions to visibility.

* = STATION THAT DOES NOT REPORT PRECIPITATION /E.G. RAIN...SNOW...ETC/
    THUNDER OR FOG.

PAZ002>004-007>009-013>016-020>023-029>032-291500-
WESTERN PENNSYLVANIA

CITY           SKY/WX    TMP DP  RH WIND       PRES   REMARKS
ERIE           PTSUNNY   77  69  76 VRB5      29.95S
MEADVILLE      SUNNY     72  66  81 CALM      29.98S
FRANKLIN*      MOSUNNY   70  66  88 N3        29.99R
NEW CASTLE     CLOUDY    68  66  94 CALM      29.99R FOG
BEAVER COUNTY  FOG       68  68 100 CALM      29.98S VSB 1/2
BUTLER*        CLOUDY    68  66  94 CALM      30.00S
PITTSBURGH INT CLOUDY    68  66  93 VRB3      29.97S
PITTSBURGH     CLOUDY    71  67  87 CALM      29.97S FOG
INDIANA*       PTSUNNY   72  68  88 W3        30.01F
LATROBE        PTSUNNY   72  72 100 CALM      29.99R
WASHINGTON CO* CLOUDY    70  66  88 CALM      29.98F
$$

PAZ004>006-010>012-017>019-024>028-033>037-041-042-045-046-049>053-291500-
CENTRAL PENNSYLVANIA

CITY           SKY/WX    TMP DP  RH WIND       PRES   REMARKS
BRADFORD       SUNNY     74  62  66 CALM      29.99F
DUBOIS         CLOUDY    67  64  90 NE5       29.98S FOG
CLEARFIELD     CLOUDY    68  65  90 CALM      29.98F
JOHNSTOWN      CLOUDY    68  63  84 NW7       30.01S
ALTOONA        PTSUNNY   73  67  81 NW9       29.98S
STATE COLLEGE  MOSUNNY   72  68  88 VRB3      29.96S
WILLIAMSPORT   SUNNY     79  65  62 W9        29.89F
SELINSGROVE    SUNNY     79  72  79 NW6       29.91S
FT INDIANTOWN  PTSUNNY   77  68  73 VRB3      29.88S
CAPITAL CITY   MOSUNNY   80  67  64 NW8       29.88S
HARRISBURG     SUNNY     79  71  76 NW8       29.87S
YORK           SUNNY     79  68  69 N7        29.88F
$$

PAZ038>040-043-044-047-048-054-055-060>062-067>071-291500-
EASTERN PENNSYLVANIA

CITY           SKY/WX    TMP DP  RH WIND       PRES   REMARKS
SCRANTON       CLOUDY    75  70  84 CALM      29.91S
MOUNT POCONO   CLOUDY    69  66  90 E7        29.94S
ALLENTOWN      CLOUDY    76  68  76 NE7       29.88S
QUAKERTOWN*    MOSUNNY   75  70  83 CALM      29.89S
READING        PTSUNNY   77  67  71 N7        29.87S
LANCASTER      MOSUNNY   78  69  73 N6        29.88S
COATESVILLE    MOSUNNY   75  68  78 N8        29.89S
POTTSTOWN      MOSUNNY   75  69  81 N6        29.89S
BLUE BELL      PTSUNNY   73  70  88 NE7       29.85F
DOYLESTOWN     PTSUNNY   74  71  91 N7        29.87S
WILLOW GROVE   NOT AVBL
NORTH PHILA    PTSUNNY   79  72  79 N13G20    29.86F
PHILADELPHIA   PTSUNNY   77  71  82 N12       29.84F
$$




USA.gov is the U.S. government's official web portal to all federal, state and local government web resources and services.